owner,sensor,date,latitude,longitude,vertical_datum,sea_water_temperature,qcFlag
Anadarko,ioos:station:wmo:42379:1,2020-07-01T00:05:00Z,27.3620,-90.1810,47.2,79.7,11144222
Anadarko,ioos:station:wmo:42379:1,2020-07-01T00:25:00Z,27.3620,-90.1810,47.2,79.8,11144222
Anadarko,ioos:station:wmo:42379:1,2020-07-01T00:45:00Z,27.3620,-90.1810,47.2,79.8,11144222
Anadarko,ioos:station:wmo:42379:1,2020-07-01T01:05:00Z,27.3620,-90.1810,47.2,79.7,11144222
Anadarko,ioos:station:wmo:42379:1,2020-07-01T01:25:00Z,27.3620,-90.1810,47.2,79.5,11144222
Anadarko,ioos:station:wmo:42379:1,2020-07-01T01:45:00Z,27.3620,-90.1810,47.2,79.6,11144222
Anadarko,ioos:station:wmo:42379:1,2020-07-01T02:05:00Z,27.3620,-90.1810,47.2,79.6,11144222
Anadarko,ioos:station:wmo:42379:1,2020-07-01T02:25:00Z,27.3620,-90.1810,47.2,79.8,11144222
Anadarko,ioos:station:wmo:42379:1,2020-07-01T02:45:00Z,27.3620,-90.1810,47.2,79.7,11144222
Anadarko,ioos:station:wmo:42379:1,2020-07-01T03:04:00Z,27.3620,-90.1810,47.2,79.6,11144222
Anadarko,ioos:station:wmo:42379:1,2020-07-01T03:24:00Z,27.3620,-90.1810,47.2,79.6,11144222
Anadarko,ioos:station:wmo:42379:1,2020-07-01T03:43:00Z,27.3620,-90.1810,47.2,79.8,11144222
Anadarko,ioos:station:wmo:42379:1,2020-07-01T04:03:00Z,27.3620,-90.1810,47.2,79.9,11144222
Anadarko,ioos:station:wmo:42379:1,2020-07-01T04:23:00Z,27.3620,-90.1810,47.2,79.8,11144222
Anadarko,ioos:station:wmo:42379:1,2020-07-01T04:42:00Z,27.3620,-90.1810,47.2,79.9,11144222
Anadarko,ioos:station:wmo:42379:1,2020-07-01T05:02:00Z,27.3620,-90.1810,47.2,79.6,11144222
Anadarko,ioos:station:wmo:42379:1,2020-07-01T05:22:00Z,27.3620,-90.1810,47.2,79.8,11144222
Anadarko,ioos:station:wmo:42379:1,2020-07-01T05:42:00Z,27.3620,-90.1810,47.2,79.7,11144222
Anadarko,ioos:station:wmo:42379:1,2020-07-01T06:02:00Z,27.3620,-90.1810,47.2,79.6,11144222
Anadarko,ioos:station:wmo:42379:1,2020-07-01T06:22:00Z,27.3620,-90.1810,47.2,79.8,11144222
Anadarko,ioos:station:wmo:42379:1,2020-07-01T06:42:00Z,27.3620,-90.1810,47.2,79.9,11144222
Anadarko,ioos:station:wmo:42379:1,2020-07-01T07:01:00Z,27.3620,-90.1810,47.2,79.8,11144222
Anadarko,ioos:station:wmo:42379:1,2020-07-01T07:21:00Z,27.3620,-90.1810,47.2,79.7,11144222
Anadarko,ioos:station:wmo:42379:1,2020-07-01T07:40:00Z,27.3620,-90.1810,47.2,79.7,11144222
Anadarko,ioos:station:wmo:42379:1,2020-07-01T07:59:00Z,27.3620,-90.1810,47.2,79.7,11144222
Anadarko,ioos:station:wmo:42379:1,2020-07-01T08:19:00Z,27.3620,-90.1810,47.2,79.5,11144222
Anadarko,ioos:station:wmo:42379:1,2020-07-01T08:38:00Z,27.3620,-90.1810,47.2,79.6,11144222
Anadarko,ioos:station:wmo:42379:1,2020-07-01T08:57:00Z,27.3620,-90.1810,47.2,79.7,11144222
Anadarko,ioos:station:wmo:42379:1,2020-07-01T09:17:00Z,27.3620,-90.1810,47.2,79.8,11144222
Anadarko,ioos:station:wmo:42379:1,2020-07-01T09:37:00Z,27.3620,-90.1810,47.2,79.8,11144222
Anadarko,ioos:station:wmo:42379:1,2020-07-01T09:57:00Z,27.3620,-90.1810,47.2,79.8,11144222
Anadarko,ioos:station:wmo:42379:1,2020-07-01T10:17:00Z,27.3620,-90.1810,47.2,79.7,11144222
Anadarko,ioos:station:wmo:42379:1,2020-07-01T10:37:00Z,27.3620,-90.1810,47.2,79.7,11144222
Anadarko,ioos:station:wmo:42379:1,2020-07-01T10:57:00Z,27.3620,-90.1810,47.2,79.9,11144222
Anadarko,ioos:station:wmo:42379:1,2020-07-01T11:17:00Z,27.3620,-90.1810,47.2,79.7,11144222
Anadarko,ioos:station:wmo:42379:1,2020-07-01T11:37:00Z,27.3620,-90.1810,47.2,79.9,11144222
Anadarko,ioos:station:wmo:42379:1,2020-07-01T11:57:00Z,27.3620,-90.1810,47.2,79.7,11144222
Anadarko,ioos:station:wmo:42379:1,2020-07-01T12:17:00Z,27.3620,-90.1810,47.2,79.6,11144222
Anadarko,ioos:station:wmo:42379:1,2020-07-01T12:37:00Z,27.3620,-90.1810,47.2,79.6,11144222
Anadarko,ioos:station:wmo:42379:1,2020-07-01T12:56:00Z,27.3620,-90.1810,47.2,79.7,11144222
Anadarko,ioos:station:wmo:42379:1,2020-07-01T13:15:00Z,27.3620,-90.1810,47.2,79.8,11144222
Anadarko,ioos:station:wmo:42379:1,2020-07-01T13:35:00Z,27.3620,-90.1810,47.2,79.8,11144222
Anadarko,ioos:station:wmo:42379:1,2020-07-01T13:55:00Z,27.3620,-90.1810,47.2,79.9,11144222
Anadarko,ioos:station:wmo:42379:1,2020-07-01T14:15:00Z,27.3620,-90.1810,47.2,79.7,11144222
Anadarko,ioos:station:wmo:42379:1,2020-07-01T14:35:00Z,27.3620,-90.1810,47.2,79.9,11144222
Anadarko,ioos:station:wmo:42379:1,2020-07-01T14:54:00Z,27.3620,-90.1810,47.2,79.8,11144222
Anadarko,ioos:station:wmo:42379:1,2020-07-01T15:14:00Z,27.3620,-90.1810,47.2,79.8,11144222
Anadarko,ioos:station:wmo:42379:1,2020-07-01T15:34:00Z,27.3620,-90.1810,47.2,79.7,11144222
Anadarko,ioos:station:wmo:42379:1,2020-07-01T15:54:00Z,27.3620,-90.1810,47.2,79.8,11144222
Anadarko,ioos:station:wmo:42379:1,2020-07-01T16:14:00Z,27.3620,-90.1810,47.2,79.8,11144222
Anadarko,ioos:station:wmo:42379:1,2020-07-01T16:34:00Z,27.3620,-90.1810,47.2,79.6,11144222
Anadarko,ioos:station:wmo:42379:1,2020-07-01T16:54:00Z,27.3620,-90.1810,47.2,79.8,11144222
Anadarko,ioos:station:wmo:42379:1,2020-07-01T17:14:00Z,27.3620,-90.1810,47.2,79.7,11144222
Anadarko,ioos:station:wmo:42379:1,2020-07-01T17:34:00Z,27.3620,-90.1810,47.2,79.9,11144222
Anadarko,ioos:station:wmo:42379:1,2020-07-01T17:54:00Z,27.3620,-90.1810,47.2,79.7,11144222
Anadarko,ioos:station:wmo:42379:1,2020-07-01T18:14:00Z,27.3620,-90.1810,47.2,79.8,11144222
Anadarko,ioos:station:wmo:42379:1,2020-07-01T18:34:00Z,27.3620,-90.1810,47.2,79.7,11144222
Anadarko,ioos:station:wmo:42379:1,2020-07-01T18:54:00Z,27.3620,-90.1810,47.2,79.8,11144222
Anadarko,ioos:station:wmo:42379:1,2020-07-01T19:14:00Z,27.3620,-90.1810,47.2,79.7,11144222
Anadarko,ioos:station:wmo:42379:1,2020-07-01T19:34:00Z,27.3620,-90.1810,47.2,79.8,11144222
Anadarko,ioos:station:wmo:42379:1,2020-07-01T19:54:00Z,27.3620,-90.1810,47.2,79.8,11144222
Anadarko,ioos:station:wmo:42379:1,2020-07-01T20:14:00Z,27.3620,-90.1810,47.2,79.8,11144222
Anadarko,ioos:station:wmo:42379:1,2020-07-01T20:34:00Z,27.3620,-90.1810,47.2,79.8,11144222
Anadarko,ioos:station:wmo:42379:1,2020-07-01T20:54:00Z,27.3620,-90.1810,47.2,79.9,11144222
Anadarko,ioos:station:wmo:42379:1,2020-07-01T21:14:00Z,27.3620,-90.1810,47.2,79.8,11144222
Anadarko,ioos:station:wmo:42379:1,2020-07-01T21:34:00Z,27.3620,-90.1810,47.2,79.8,11144222
Anadarko,ioos:station:wmo:42379:1,2020-07-01T21:54:00Z,27.3620,-90.1810,47.2,79.7,11144222
Anadarko,ioos:station:wmo:42379:1,2020-07-01T22:14:00Z,27.3620,-90.1810,47.2,79.5,11144222
Anadarko,ioos:station:wmo:42379:1,2020-07-01T22:33:00Z,27.3620,-90.1810,47.2,79.7,11144222
Anadarko,ioos:station:wmo:42379:1,2020-07-01T22:52:00Z,27.3620,-90.1810,47.2,79.8,11144222
Anadarko,ioos:station:wmo:42379:1,2020-07-01T23:12:00Z,27.3620,-90.1810,47.2,79.7,11144222
Anadarko,ioos:station:wmo:42379:1,2020-07-01T23:31:00Z,27.3620,-90.1810,47.2,79.8,11144222
Anadarko,ioos:station:wmo:42379:1,2020-07-01T23:50:00Z,27.3620,-90.1810,47.2,79.8,11144222
Anadarko,ioos:station:wmo:42379:1,2020-07-02T00:10:00Z,27.3620,-90.1810,47.2,79.8,11144222
Anadarko,ioos:station:wmo:42379:1,2020-07-02T00:30:00Z,27.3620,-90.1810,47.2,79.7,11144222
Anadarko,ioos:station:wmo:42379:1,2020-07-02T00:50:00Z,27.3620,-90.1810,47.2,79.8,11144222
Anadarko,ioos:station:wmo:42379:1,2020-07-02T01:10:00Z,27.3620,-90.1810,47.2,79.7,11144222
Anadarko,ioos:station:wmo:42379:1,2020-07-02T01:30:00Z,27.3620,-90.1810,47.2,79.7,11144222
Anadarko,ioos:station:wmo:42379:1,2020-07-02T01:50:00Z,27.3620,-90.1810,47.2,79.8,11144222
Anadarko,ioos:station:wmo:42379:1,2020-07-02T02:10:00Z,27.3620,-90.1810,47.2,79.7,11144222
Anadarko,ioos:station:wmo:42379:1,2020-07-02T02:30:00Z,27.3620,-90.1810,47.2,79.7,11144222
Anadarko,ioos:station:wmo:42379:1,2020-07-02T02:50:00Z,27.3620,-90.1810,47.2,79.6,11144222
Anadarko,ioos:station:wmo:42379:1,2020-07-02T03:10:00Z,27.3620,-90.1810,47.2,79.8,11144222
Anadarko,ioos:station:wmo:42379:1,2020-07-02T03:30:00Z,27.3620,-90.1810,47.2,79.7,11144222
Anadarko,ioos:station:wmo:42379:1,2020-07-02T03:50:00Z,27.3620,-90.1810,47.2,79.8,11144222
Anadarko,ioos:station:wmo:42379:1,2020-07-02T04:10:00Z,27.3620,-90.1810,47.2,79.7,11144222
Anadarko,ioos:station:wmo:42379:1,2020-07-02T04:30:00Z,27.3620,-90.1810,47.2,79.5,11144222
Anadarko,ioos:station:wmo:42379:1,2020-07-02T04:50:00Z,27.3620,-90.1810,47.2,79.7,11144222
Anadarko,ioos:station:wmo:42379:1,2020-07-02T05:10:00Z,27.3620,-90.1810,47.2,79.9,11144222
Anadarko,ioos:station:wmo:42379:1,2020-07-02T05:30:00Z,27.3620,-90.1810,47.2,79.4,11144222
Anadarko,ioos:station:wmo:42379:1,2020-07-02T05:50:00Z,27.3620,-90.1810,47.2,79.6,11144222
Anadarko,ioos:station:wmo:42379:1,2020-07-02T06:10:00Z,27.3620,-90.1810,47.2,79.7,11144222
Anadarko,ioos:station:wmo:42379:1,2020-07-02T06:30:00Z,27.3620,-90.1810,47.2,79.6,11144222
Anadarko,ioos:station:wmo:42379:1,2020-07-02T06:50:00Z,27.3620,-90.1810,47.2,79.6,11144222
Anadarko,ioos:station:wmo:42379:1,2020-07-02T07:10:00Z,27.3620,-90.1810,47.2,79.6,11144222
Anadarko,ioos:station:wmo:42379:1,2020-07-02T07:30:00Z,27.3620,-90.1810,47.2,79.8,11144222
Anadarko,ioos:station:wmo:42379:1,2020-07-02T07:50:00Z,27.3620,-90.1810,47.2,79.6,11144222
Anadarko,ioos:station:wmo:42379:1,2020-07-02T08:10:00Z,27.3620,-90.1810,47.2,79.6,11144222
Anadarko,ioos:station:wmo:42379:1,2020-07-02T08:30:00Z,27.3620,-90.1810,47.2,79.6,11144222
Anadarko,ioos:station:wmo:42379:1,2020-07-02T08:50:00Z,27.3620,-90.1810,47.2,79.7,11144222
Anadarko,ioos:station:wmo:42379:1,2020-07-02T09:10:00Z,27.3620,-90.1810,47.2,79.7,11144222
Anadarko,ioos:station:wmo:42379:1,2020-07-02T09:30:00Z,27.3620,-90.1810,47.2,79.7,11144222
Anadarko,ioos:station:wmo:42379:1,2020-07-02T09:50:00Z,27.3620,-90.1810,47.2,79.7,11144222
Anadarko,ioos:station:wmo:42379:1,2020-07-02T10:10:00Z,27.3620,-90.1810,47.2,79.8,11144222
Anadarko,ioos:station:wmo:42379:1,2020-07-02T10:30:00Z,27.3620,-90.1810,47.2,79.8,11144222
Anadarko,ioos:station:wmo:42379:1,2020-07-02T10:50:00Z,27.3620,-90.1810,47.2,79.6,11144222
Anadarko,ioos:station:wmo:42379:1,2020-07-02T11:10:00Z,27.3620,-90.1810,47.2,79.7,11144222
Anadarko,ioos:station:wmo:42379:1,2020-07-02T11:30:00Z,27.3620,-90.1810,47.2,79.6,11144222
Anadarko,ioos:station:wmo:42379:1,2020-07-02T11:49:00Z,27.3620,-90.1810,47.2,79.6,11144222
Anadarko,ioos:station:wmo:42379:1,2020-07-02T12:09:00Z,27.3620,-90.1810,47.2,79.6,11144222
Anadarko,ioos:station:wmo:42379:1,2020-07-02T12:29:00Z,27.3620,-90.1810,47.2,79.5,11144222
Anadarko,ioos:station:wmo:42379:1,2020-07-02T12:49:00Z,27.3620,-90.1810,47.2,79.4,11144222
Anadarko,ioos:station:wmo:42379:1,2020-07-02T13:08:00Z,27.3620,-90.1810,47.2,79.5,11144222
Anadarko,ioos:station:wmo:42379:1,2020-07-02T13:28:00Z,27.3620,-90.1810,47.2,73.1,11144222
Anadarko,ioos:station:wmo:42379:1,2020-07-02T13:48:00Z,27.3620,-90.1810,47.2,73.2,11144222
Anadarko,ioos:station:wmo:42379:1,2020-07-02T14:08:00Z,27.3620,-90.1810,47.2,73.3,11144222
Anadarko,ioos:station:wmo:42379:1,2020-07-02T14:28:00Z,27.3620,-90.1810,47.2,80.5,11144222
Anadarko,ioos:station:wmo:42379:1,2020-07-02T14:48:00Z,27.3620,-90.1810,47.2,80.0,11144222
Anadarko,ioos:station:wmo:42379:1,2020-07-02T15:08:00Z,27.3620,-90.1810,47.2,80.4,11144222
Anadarko,ioos:station:wmo:42379:1,2020-07-02T15:28:00Z,27.3620,-90.1810,47.2,80.3,11144222
Anadarko,ioos:station:wmo:42379:1,2020-07-02T15:48:00Z,27.3620,-90.1810,47.2,80.6,11144222
Anadarko,ioos:station:wmo:42379:1,2020-07-02T16:08:00Z,27.3620,-90.1810,47.2,80.7,11144222
Anadarko,ioos:station:wmo:42379:1,2020-07-02T16:28:00Z,27.3620,-90.1810,47.2,80.5,11144222
Anadarko,ioos:station:wmo:42379:1,2020-07-02T16:48:00Z,27.3620,-90.1810,47.2,79.9,11144222
Anadarko,ioos:station:wmo:42379:1,2020-07-02T17:07:00Z,27.3620,-90.1810,47.2,80.1,11144222
Anadarko,ioos:station:wmo:42379:1,2020-07-02T17:26:00Z,27.3620,-90.1810,47.2,80.5,11144222
Anadarko,ioos:station:wmo:42379:1,2020-07-02T17:45:00Z,27.3620,-90.1810,47.2,80.3,11144222
Anadarko,ioos:station:wmo:42379:1,2020-07-02T18:05:00Z,27.3620,-90.1810,47.2,80.3,11144222
Anadarko,ioos:station:wmo:42379:1,2020-07-02T18:25:00Z,27.3620,-90.1810,47.2,79.9,11144222
Anadarko,ioos:station:wmo:42379:1,2020-07-02T18:45:00Z,27.3620,-90.1810,47.2,80.3,11144222
Anadarko,ioos:station:wmo:42379:1,2020-07-02T19:05:00Z,27.3620,-90.1810,47.2,80.1,11144222
Anadarko,ioos:station:wmo:42379:1,2020-07-02T19:25:00Z,27.3620,-90.1810,47.2,80.2,11144222
Anadarko,ioos:station:wmo:42379:1,2020-07-02T19:45:00Z,27.3620,-90.1810,47.2,79.9,11144222
Anadarko,ioos:station:wmo:42379:1,2020-07-02T20:05:00Z,27.3620,-90.1810,47.2,79.9,11144222
Anadarko,ioos:station:wmo:42379:1,2020-07-02T20:25:00Z,27.3620,-90.1810,47.2,79.9,11144222
Anadarko,ioos:station:wmo:42379:1,2020-07-02T20:45:00Z,27.3620,-90.1810,47.2,79.5,11144222
Anadarko,ioos:station:wmo:42379:1,2020-07-02T21:05:00Z,27.3620,-90.1810,47.2,80.0,11144222
Anadarko,ioos:station:wmo:42379:1,2020-07-02T21:25:00Z,27.3620,-90.1810,47.2,79.9,11144222
Anadarko,ioos:station:wmo:42379:1,2020-07-02T21:45:00Z,27.3620,-90.1810,47.2,79.9,11144222
Anadarko,ioos:station:wmo:42379:1,2020-07-02T22:05:00Z,27.3620,-90.1810,47.2,79.8,11144222
Anadarko,ioos:station:wmo:42379:1,2020-07-02T22:25:00Z,27.3620,-90.1810,47.2,79.9,11144222
Anadarko,ioos:station:wmo:42379:1,2020-07-02T22:45:00Z,27.3620,-90.1810,47.2,80.1,11144222
Anadarko,ioos:station:wmo:42379:1,2020-07-02T23:05:00Z,27.3620,-90.1810,47.2,79.9,11144222
Anadarko,ioos:station:wmo:42379:1,2020-07-02T23:25:00Z,27.3620,-90.1810,47.2,79.9,11144222
Anadarko,ioos:station:wmo:42379:1,2020-07-02T23:45:00Z,27.3620,-90.1810,47.2,80.0,11144222
Anadarko,ioos:station:wmo:42379:1,2020-07-03T00:05:00Z,27.3620,-90.1810,47.2,79.9,11144222
Anadarko,ioos:station:wmo:42379:1,2020-07-03T00:25:00Z,27.3620,-90.1810,47.2,80.0,11144222
Anadarko,ioos:station:wmo:42379:1,2020-07-03T00:45:00Z,27.3620,-90.1810,47.2,80.0,11144222
Anadarko,ioos:station:wmo:42379:1,2020-07-03T01:05:00Z,27.3620,-90.1810,47.2,80.0,11144222
Anadarko,ioos:station:wmo:42379:1,2020-07-03T01:25:00Z,27.3620,-90.1810,47.2,79.9,11144222
Anadarko,ioos:station:wmo:42379:1,2020-07-03T01:45:00Z,27.3620,-90.1810,47.2,79.9,11144222
Anadarko,ioos:station:wmo:42379:1,2020-07-03T02:05:00Z,27.3620,-90.1810,47.2,79.9,11144222
Anadarko,ioos:station:wmo:42379:1,2020-07-03T02:25:00Z,27.3620,-90.1810,47.2,79.9,11144222
Anadarko,ioos:station:wmo:42379:1,2020-07-03T02:44:00Z,27.3620,-90.1810,47.2,80.0,11144222
Anadarko,ioos:station:wmo:42379:1,2020-07-03T03:03:00Z,27.3620,-90.1810,47.2,79.8,11144222
Anadarko,ioos:station:wmo:42379:1,2020-07-03T03:23:00Z,27.3620,-90.1810,47.2,79.8,11144222
Anadarko,ioos:station:wmo:42379:1,2020-07-03T03:43:00Z,27.3620,-90.1810,47.2,79.8,11144222
Anadarko,ioos:station:wmo:42379:1,2020-07-03T04:03:00Z,27.3620,-90.1810,47.2,79.7,11144222
Anadarko,ioos:station:wmo:42379:1,2020-07-03T04:23:00Z,27.3620,-90.1810,47.2,79.7,11144222
Anadarko,ioos:station:wmo:42379:1,2020-07-03T04:43:00Z,27.3620,-90.1810,47.2,79.8,11144222
Anadarko,ioos:station:wmo:42379:1,2020-07-03T05:03:00Z,27.3620,-90.1810,47.2,79.2,11144222
Anadarko,ioos:station:wmo:42379:1,2020-07-03T05:23:00Z,27.3620,-90.1810,47.2,80.1,11144222
Anadarko,ioos:station:wmo:42379:1,2020-07-03T05:43:00Z,27.3620,-90.1810,47.2,79.7,11144222
Anadarko,ioos:station:wmo:42379:1,2020-07-03T06:03:00Z,27.3620,-90.1810,47.2,79.7,11144222
Anadarko,ioos:station:wmo:42379:1,2020-07-03T06:23:00Z,27.3620,-90.1810,47.2,79.7,11144222
Anadarko,ioos:station:wmo:42379:1,2020-07-03T06:43:00Z,27.3620,-90.1810,47.2,79.7,11144222
Anadarko,ioos:station:wmo:42379:1,2020-07-03T07:03:00Z,27.3620,-90.1810,47.2,80.0,11144222
Anadarko,ioos:station:wmo:42379:1,2020-07-03T07:23:00Z,27.3620,-90.1810,47.2,80.1,11144222
Anadarko,ioos:station:wmo:42379:1,2020-07-03T07:43:00Z,27.3620,-90.1810,47.2,80.2,11144222
Anadarko,ioos:station:wmo:42379:1,2020-07-03T08:03:00Z,27.3620,-90.1810,47.2,80.1,11144222
Anadarko,ioos:station:wmo:42379:1,2020-07-03T08:23:00Z,27.3620,-90.1810,47.2,80.1,11144222
Anadarko,ioos:station:wmo:42379:1,2020-07-03T08:43:00Z,27.3620,-90.1810,47.2,80.0,11144222
Anadarko,ioos:station:wmo:42379:1,2020-07-03T09:02:00Z,27.3620,-90.1810,47.2,79.9,11144222
Anadarko,ioos:station:wmo:42379:1,2020-07-03T09:22:00Z,27.3620,-90.1810,47.2,80.0,11144222
Anadarko,ioos:station:wmo:42379:1,2020-07-03T09:42:00Z,27.3620,-90.1810,47.2,79.9,11144222
Anadarko,ioos:station:wmo:42379:1,2020-07-03T10:02:00Z,27.3620,-90.1810,47.2,80.0,11144222
Anadarko,ioos:station:wmo:42379:1,2020-07-03T10:22:00Z,27.3620,-90.1810,47.2,80.0,11144222
Anadarko,ioos:station:wmo:42379:1,2020-07-03T10:42:00Z,27.3620,-90.1810,47.2,79.9,11144222
Anadarko,ioos:station:wmo:42379:1,2020-07-03T11:02:00Z,27.3620,-90.1810,47.2,79.9,11144222
Anadarko,ioos:station:wmo:42379:1,2020-07-03T11:22:00Z,27.3620,-90.1810,47.2,80.0,11144222
Anadarko,ioos:station:wmo:42379:1,2020-07-03T11:42:00Z,27.3620,-90.1810,47.2,80.0,11144222
Anadarko,ioos:station:wmo:42379:1,2020-07-03T12:01:00Z,27.3620,-90.1810,47.2,79.9,11144222
Anadarko,ioos:station:wmo:42379:1,2020-07-03T12:21:00Z,27.3620,-90.1810,47.2,79.5,11144222
Anadarko,ioos:station:wmo:42379:1,2020-07-03T12:40:00Z,27.3620,-90.1810,47.2,79.5,11144222
Anadarko,ioos:station:wmo:42379:1,2020-07-03T12:59:00Z,27.3620,-90.1810,47.2,79.6,11144222
Anadarko,ioos:station:wmo:42379:1,2020-07-03T13:19:00Z,27.3620,-90.1810,47.2,79.6,11144222
Anadarko,ioos:station:wmo:42379:1,2020-07-03T13:38:00Z,27.3620,-90.1810,47.2,79.7,11144222
Anadarko,ioos:station:wmo:42379:1,2020-07-03T13:58:00Z,27.3620,-90.1810,47.2,79.7,11144222
Anadarko,ioos:station:wmo:42379:1,2020-07-03T14:18:00Z,27.3620,-90.1810,47.2,79.6,11144222
Anadarko,ioos:station:wmo:42379:1,2020-07-03T14:38:00Z,27.3620,-90.1810,47.2,79.5,11144222
Anadarko,ioos:station:wmo:42379:1,2020-07-03T14:58:00Z,27.3620,-90.1810,47.2,79.6,11144222
Anadarko,ioos:station:wmo:42379:1,2020-07-03T15:18:00Z,27.3620,-90.1810,47.2,79.7,11144222
Anadarko,ioos:station:wmo:42379:1,2020-07-03T15:38:00Z,27.3620,-90.1810,47.2,79.8,11144222
Anadarko,ioos:station:wmo:42379:1,2020-07-03T15:57:00Z,27.3620,-90.1810,47.2,79.8,11144222
Anadarko,ioos:station:wmo:42379:1,2020-07-03T16:17:00Z,27.3620,-90.1810,47.2,79.5,11144222
Anadarko,ioos:station:wmo:42379:1,2020-07-03T16:37:00Z,27.3620,-90.1810,47.2,79.6,11144222
Anadarko,ioos:station:wmo:42379:1,2020-07-03T16:57:00Z,27.3620,-90.1810,47.2,79.5,11144222
Anadarko,ioos:station:wmo:42379:1,2020-07-03T17:16:00Z,27.3620,-90.1810,47.2,79.5,11144222
Anadarko,ioos:station:wmo:42379:1,2020-07-03T17:36:00Z,27.3620,-90.1810,47.2,79.8,11144222
Anadarko,ioos:station:wmo:42379:1,2020-07-03T17:55:00Z,27.3620,-90.1810,47.2,79.6,11144222
Anadarko,ioos:station:wmo:42379:1,2020-07-03T18:14:00Z,27.3620,-90.1810,47.2,79.3,11144222
Anadarko,ioos:station:wmo:42379:1,2020-07-03T18:34:00Z,27.3620,-90.1810,47.2,79.3,11144222
Anadarko,ioos:station:wmo:42379:1,2020-07-03T18:54:00Z,27.3620,-90.1810,47.2,79.2,11144222
Anadarko,ioos:station:wmo:42379:1,2020-07-03T19:13:00Z,27.3620,-90.1810,47.2,79.5,11144222
Anadarko,ioos:station:wmo:42379:1,2020-07-03T19:33:00Z,27.3620,-90.1810,47.2,79.8,11144222
Anadarko,ioos:station:wmo:42379:1,2020-07-03T19:53:00Z,27.3620,-90.1810,47.2,79.6,11144222
Anadarko,ioos:station:wmo:42379:1,2020-07-03T20:13:00Z,27.3620,-90.1810,47.2,79.6,11144222
Anadarko,ioos:station:wmo:42379:1,2020-07-03T20:33:00Z,27.3620,-90.1810,47.2,79.4,11144222
Anadarko,ioos:station:wmo:42379:1,2020-07-03T20:53:00Z,27.3620,-90.1810,47.2,79.6,11144222
Anadarko,ioos:station:wmo:42379:1,2020-07-03T21:12:00Z,27.3620,-90.1810,47.2,79.5,11144222
Anadarko,ioos:station:wmo:42379:1,2020-07-03T21:32:00Z,27.3620,-90.1810,47.2,79.8,11144222
Anadarko,ioos:station:wmo:42379:1,2020-07-03T21:52:00Z,27.3620,-90.1810,47.2,79.9,11144222
Anadarko,ioos:station:wmo:42379:1,2020-07-03T22:11:00Z,27.3620,-90.1810,47.2,79.9,11144222
Anadarko,ioos:station:wmo:42379:1,2020-07-03T22:31:00Z,27.3620,-90.1810,47.2,79.8,11144222
Anadarko,ioos:station:wmo:42379:1,2020-07-03T22:50:00Z,27.3620,-90.1810,47.2,79.9,11144222
Anadarko,ioos:station:wmo:42379:1,2020-07-03T23:10:00Z,27.3620,-90.1810,47.2,80.0,11144222
Anadarko,ioos:station:wmo:42379:1,2020-07-03T23:30:00Z,27.3620,-90.1810,47.2,80.0,11144222
Anadarko,ioos:station:wmo:42379:1,2020-07-03T23:50:00Z,27.3620,-90.1810,47.2,79.6,11144222
Anadarko,ioos:station:wmo:42379:1,2020-07-04T00:10:00Z,27.3620,-90.1810,47.2,79.9,11144222
Anadarko,ioos:station:wmo:42379:1,2020-07-04T00:49:00Z,27.3620,-90.1810,47.2,79.9,11144222
Anadarko,ioos:station:wmo:42379:1,2020-07-04T00:30:00Z,27.3620,-90.1810,47.2,80.0,11144222
Anadarko,ioos:station:wmo:42379:1,2020-07-04T01:09:00Z,27.3620,-90.1810,47.2,79.8,11144222
Anadarko,ioos:station:wmo:42379:1,2020-07-04T01:29:00Z,27.3620,-90.1810,47.2,79.8,11144222
Anadarko,ioos:station:wmo:42379:1,2020-07-04T01:49:00Z,27.3620,-90.1810,47.2,79.9,11144222
Anadarko,ioos:station:wmo:42379:1,2020-07-04T02:09:00Z,27.3620,-90.1810,47.2,79.9,11144222
Anadarko,ioos:station:wmo:42379:1,2020-07-04T02:29:00Z,27.3620,-90.1810,47.2,79.6,11144222
Anadarko,ioos:station:wmo:42379:1,2020-07-04T02:49:00Z,27.3620,-90.1810,47.2,79.9,11144222
Anadarko,ioos:station:wmo:42379:1,2020-07-04T03:09:00Z,27.3620,-90.1810,47.2,79.7,11144222
Anadarko,ioos:station:wmo:42379:1,2020-07-04T03:29:00Z,27.3620,-90.1810,47.2,79.6,11144222
Anadarko,ioos:station:wmo:42379:1,2020-07-04T03:49:00Z,27.3620,-90.1810,47.2,79.8,11144222
Anadarko,ioos:station:wmo:42379:1,2020-07-04T04:08:00Z,27.3620,-90.1810,47.2,79.6,11144222
Anadarko,ioos:station:wmo:42379:1,2020-07-04T04:28:00Z,27.3620,-90.1810,47.2,79.7,11144222
Anadarko,ioos:station:wmo:42379:1,2020-07-04T04:48:00Z,27.3620,-90.1810,47.2,79.7,11144222
Anadarko,ioos:station:wmo:42379:1,2020-07-04T05:08:00Z,27.3620,-90.1810,47.2,79.8,11144222
Anadarko,ioos:station:wmo:42379:1,2020-07-04T05:28:00Z,27.3620,-90.1810,47.2,79.8,11144222
Anadarko,ioos:station:wmo:42379:1,2020-07-04T05:48:00Z,27.3620,-90.1810,47.2,79.8,11144222
Anadarko,ioos:station:wmo:42379:1,2020-07-04T06:08:00Z,27.3620,-90.1810,47.2,79.8,11144222
Anadarko,ioos:station:wmo:42379:1,2020-07-04T06:28:00Z,27.3620,-90.1810,47.2,79.7,11144222
Anadarko,ioos:station:wmo:42379:1,2020-07-04T06:48:00Z,27.3620,-90.1810,47.2,79.9,11144222
Anadarko,ioos:station:wmo:42379:1,2020-07-04T07:07:00Z,27.3620,-90.1810,47.2,79.7,11144222
Anadarko,ioos:station:wmo:42379:1,2020-07-04T07:27:00Z,27.3620,-90.1810,47.2,79.8,11144222
Anadarko,ioos:station:wmo:42379:1,2020-07-04T07:47:00Z,27.3620,-90.1810,47.2,79.8,11144222
Anadarko,ioos:station:wmo:42379:1,2020-07-04T08:07:00Z,27.3620,-90.1810,47.2,79.5,11144222
Anadarko,ioos:station:wmo:42379:1,2020-07-04T08:26:00Z,27.3620,-90.1810,47.2,79.6,11144222
Anadarko,ioos:station:wmo:42379:1,2020-07-04T08:46:00Z,27.3620,-90.1810,47.2,79.2,11144222
Anadarko,ioos:station:wmo:42379:1,2020-07-04T09:06:00Z,27.3620,-90.1810,47.2,79.7,11144222
Anadarko,ioos:station:wmo:42379:1,2020-07-04T09:26:00Z,27.3620,-90.1810,47.2,79.2,11144222
Anadarko,ioos:station:wmo:42379:1,2020-07-04T09:46:00Z,27.3620,-90.1810,47.2,79.6,11144222
Anadarko,ioos:station:wmo:42379:1,2020-07-04T10:06:00Z,27.3620,-90.1810,47.2,78.9,11144222
Anadarko,ioos:station:wmo:42379:1,2020-07-04T10:26:00Z,27.3620,-90.1810,47.2,79.6,11144222
Anadarko,ioos:station:wmo:42379:1,2020-07-04T10:46:00Z,27.3620,-90.1810,47.2,79.9,11144222
Anadarko,ioos:station:wmo:42379:1,2020-07-04T11:06:00Z,27.3620,-90.1810,47.2,79.9,11144222
Anadarko,ioos:station:wmo:42379:1,2020-07-04T11:26:00Z,27.3620,-90.1810,47.2,79.9,11144222
Anadarko,ioos:station:wmo:42379:1,2020-07-04T11:46:00Z,27.3620,-90.1810,47.2,79.9,11144222
Anadarko,ioos:station:wmo:42379:1,2020-07-04T12:06:00Z,27.3620,-90.1810,47.2,79.8,11144222
Anadarko,ioos:station:wmo:42379:1,2020-07-04T12:26:00Z,27.3620,-90.1810,47.2,80.0,11144222
Anadarko,ioos:station:wmo:42379:1,2020-07-04T12:46:00Z,27.3620,-90.1810,47.2,80.0,11144222
Anadarko,ioos:station:wmo:42379:1,2020-07-04T13:06:00Z,27.3620,-90.1810,47.2,79.9,11144222
Anadarko,ioos:station:wmo:42379:1,2020-07-04T13:26:00Z,27.3620,-90.1810,47.2,80.0,11144222